Regional Weather Roundup
Issued by NWS Raleigh/Durham, NC

Home | Current Version | Previous Version | Text Only | Print | Product List | Glossary On
Versions: 1 2 3 4 5 6 7 8 9 10 11 12 13 14 15 16 17 18 19 20 21 22 23 24 25 26 27 28 29 30 31 32 33 34 35 36 37 38 39 40 41 42 43 44 45 46 47 48 49 50
000
ASUS42 KRAH 301310
RWRRAH
NORTH CAROLINA WEATHER ROUNDUP
NATIONAL WEATHER SERVICE RALEIGH NC
900 AM EDT SUN APR 30 2017

NOTE: "FAIR" INDICATES FEW OR NO CLOUDS BELOW 12,000 FEET WITH NO
SIGNIFICANT WEATHER AND/OR OBSTRUCTIONS TO VISIBILITY.

NCZ001-053-055-056-065-067-301400-
WESTERN NORTH CAROLINA

CITY           SKY/WX    TMP DP  RH WIND       PRES   REMARKS
ASHEVILLE      NOT AVBL
JEFFERSON      PTSUNNY   64  57  79 SE3       30.21S
HICKORY        PTSUNNY   70  64  83 S10       30.17S
RUTHERFORDTON  NOT AVBL
MOUNT AIRY     NOT AVBL
BOONE          NOT AVBL
$$

NCZ021-022-025-041-071-084-088-301400-
CENTRAL NORTH CAROLINA

CITY           SKY/WX    TMP DP  RH WIND       PRES   REMARKS
CHARLOTTE      NOT AVBL
GREENSBORO     CLOUDY    71  66  84 SW10      30.18F
WINSTON-SALEM  CLOUDY    70  64  81 S7        30.19F
RALEIGH-DURHAM PTSUNNY   74  67  78 SW13      30.21R
FORT BRAGG     CLOUDY    74  68  82 S7        30.20S
FAYETTEVILLE   CLOUDY    76  71  85 S10       30.21R
BURLINGTON     PTSUNNY   73  67  81 S8        30.19S
LAURINBURG     CLOUDY    75  71  87 SW8       30.21S
$$

NCZ011-015-027-028-043-044-047-080-103-301400-
NORTHEASTERN NORTH CAROLINA

CITY           SKY/WX    TMP DP  RH WIND       PRES   REMARKS
ROCKY MT-WILSO PTSUNNY   75  69  81 SW10      30.21S
GREENVILLE     MOSUNNY   77  70  78 SW12      30.23S
WASHINGTON     PTSUNNY   74  68  81 W9G17     30.23R
ELIZABETH CITY LGT RAIN  75  69  81 SW15      30.21R
MANTEO         CLOUDY    75  68  78 SW15      30.21F
CAPE HATTERAS  MOSUNNY   75  70  84 SW7       30.24R HAZE
$$

NCZ078-087-090-091-093-098-101-301400-
SOUTHEASTERN NORTH CAROLINA

CITY           SKY/WX    TMP DP  RH WIND       PRES   REMARKS
LUMBERTON      CLOUDY    74  71  91 S9        30.21R
GOLDSBORO      PTSUNNY   76  73  90 S10       30.21S
KINSTON        PTSUNNY   75  68  78 S6        30.23R
KENANSVILLE    CLOUDY    75  70  83 SW7       30.23R
NEW BERN       PTSUNNY   74  72  93 SW7       30.24R
CHERRY POINT   NOT AVBL
BEAUFORT       MOSUNNY   76  73  91 SW13      30.23R
JACKSONVILLE   MOSUNNY   76  73  91 SW7       30.22S
WILMINGTON     MOSUNNY   76  72  87 S10       30.22R
$$




USA.gov is the U.S. government's official web portal to all federal, state and local government web resources and services.